Weather Roundup
Issued by NWS Springfield, MO

Home | Current Version | Previous Version | Text Only | Print | Product List | Glossary On
Versions: 1 2 3 4 5 6 7 8 9 10 11 12 13 14 15 16 17 18 19 20 21 22 23 24 25 26 27 28 29 30 31 32 33 34 35 36 37 38 39 40 41 42 43 44 45 46 47 48 49 50
668
NZUS99 KSGF 260907
HRRSGF

HOURLY WEATHER
NATIONAL WEATHER SERVICE SPRINGFIELD MO
400 AM CDT SAT MAY 26 2018

......SGF CWA......

CITY           SKY/WX    TMP DP  RH WIND       PRES   REMARKS
SPRINGFIELD    FOG       65  64  97 S5        29.85S VSB 3/4
JOPLIN         CLEAR     66  65  96 S5        29.85R
WEST PLAINS    CLOUDY    66  65  96 S5        29.86S
ROLLA          PTCLDY    65  63  93 SW8       29.83F
OSAGE BEACH    CLEAR     66  64  93 SW3       29.83F
BRANSON        FOG       63  63 100 CALM      29.86F VSB 1/2

......SURROUNDING SGF CWA......

CITY           SKY/WX    TMP DP  RH WIND       PRES   REMARKS
CHANUTE        CLEAR     68  66  93 S6        29.84S
PARSONS        CLEAR     63  63 100 CALM      29.85F
COFFEYVILLE    CLEAR     65  64  97 CALM      29.83F
EMPORIA        CLEAR     67  61  81 S3        29.82F
GROVE OK       CLEAR     66  64  94 CALM      29.86S
SILOAM SPRINGS CLEAR     64  64 100 CALM      29.87  FOG
HARRISON AR    PTCLDY    64  64 100 CALM      29.86S
NEAR YELLVILLE CLOUDY    67  66  97 CALM      29.85S FOG

......KANSAS AND MISSOURI......

CITY           SKY/WX    TMP DP  RH WIND       PRES   REMARKS
KANSAS CTY INT CLEAR     71  66  84 SW7       29.79F
DOWNTOWN KC    CLEAR     72  65  78 CALM      29.78F
COLUMBIA       PTCLDY    67  65  93 SW6       29.81R FOG
SEDALIA        CLEAR     70  68  93 SW9       29.81F
ST JOSEPH      CLEAR     69  67  93 S6        29.77S
ST LOUIS       MOCLDY    71  68  90 SW6       29.80F
SPIRIT OF STL  PTCLDY    69  68  96 CALM      29.79S
KIRKSVILLE     CLEAR     66  66 100 S3        29.81R
WICHITA        CLEAR     66  64  93 S5        29.83F
TOPEKA         CLEAR     73  67  81 SW6       29.79S
OLATHE         CLEAR     67  66  97 S3        29.81S

......TENNESSEE......

CITY           SKY/WX    TMP DP  RH WIND       PRES   REMARKS
MEMPHIS        FAIR      71  70  96 SW3       29.85S
NASHVILLE      FAIR      68  65  90 S7        29.89F

......ARKANSAS.......

CITY           SKY/WX    TMP DP  RH WIND       PRES   REMARKS
FAYETTEVILLE   FOG       63  63 100 CALM      29.87S VSB 1/4
FT SMITH       CLOUDY    71  68  90 CALM      29.84S
LITTLE ROCK    PTCLDY    69  69 100 CALM      29.84S

......OKLAHOMA.......

CITY           SKY/WX    TMP DP  RH WIND       PRES   REMARKS
TULSA          CLEAR     70  66  87 S5        29.83S
PONCA CITY     CLEAR     68  64  87 SE5       29.83S
MCALESTER      MOCLDY    67  66  97 CALM      29.85F
OKLAHOMA CITY  PTCLDY    66  65  96 S7        29.86S

......IOWA............

CITY           SKY/WX    TMP DP  RH WIND       PRES   REMARKS
DES MOINES     PTCLDY    72  66  81 E5        29.74R
QUAD CITIES    LGT RAIN  67  61  81 SW15      29.78F

......ILLINOIS........

CITY           SKY/WX    TMP DP  RH WIND       PRES   REMARKS
QUINCY         CLEAR     66  64  93 SW3       29.80S
CHICAGO        MOCLDY    71  64  78 SW10      29.76R





USA.gov is the U.S. government's official web portal to all federal, state and local government web resources and services.